{"data":{"norad_id":65195,"intl_designator":"2025-175X","name":"STARLINK-34928","alt_names":[],"object_type":"PAYLOAD","status":"ACTIVE","operator":null,"country":"US","launch_date":"2025-08-14","launch_site_code":"AFWTR","launch_vehicle":null,"mission":null,"orbit_class":"UNKNOWN","rcs_meters":null,"size_class":null,"mass_kg":null,"dimensions":null,"purposes":["comms"],"wikipedia_slug":null,"has_3d_model":false,"image_url":null,"decayed_at":null,"tle_current":{"epoch":"2026-09-20T14:25:42.088512Z","epoch_age_seconds":111744,"freshness":"FRESH","line1":"1 65195U 25175X   26263.60118158  .00021676  00000+0  67197-3 0  9999","line2":"2 65195  97.2825 132.5171 0001892  83.7317 276.4141 15.33437100 62145","mean_motion":15.334371,"eccentricity":0.0001892,"inclination_deg":97.2825,"raan_deg":132.5171,"arg_perigee_deg":83.7317,"mean_anomaly_deg":276.4141,"bstar":0.00067197,"rev_number":6214,"period_min":93.906688445193,"perigee_km":464.27185068477,"apogee_km":466.86150815706,"semimajor_km":6843.7036794209,"source":"CELESTRAK","updated_at":"2026-09-21T09:00:35.532136Z"}}}